CAPE
1 15 7 1 4 4 5 4 6 4 4 5 3 2 2 1 0 0 0 0 0 0 0 0 0 0 0 0 0 0 0 0 0 0 0 0 0 0 0 0 0 0 0 0 0 0 0
0 0 3 0 0 1 2 1 1 0 0 0 0 0 0 0 0 0 0 0 0 0 0 0 0 0 0 0 0 0 0 0 0 0 0 0 0 0 0 0 0 0 0 0 0 0 0
1 5 4 0 0 0 8 11 4 2 2 1 2 0 0 0 0 0 0 0 0 0 0 0 0 0 0 0 0 0 0 0 0 0 0 0 0 0 0 0 0 0 0 0 0 0 0
9 2 9 0 0 0 8 4 0 0 1 1 2 1 2 2 0 0 0 0 0 0 0 0 0 0 0 0 0 0 0 0 0 0 0 0 0 0 0 0 0 0 0 0 0 0 0
0 0 0 0 0 2 6 5 1 2 1 1 2 2 1 0 0 0 0 0 0 0 0 0 0 0 0 0 0 0 0 0 0 0 0 0 0 0 0 0 0 0 0 0 0 0 0
4 4 0 0 0 2 4 7 5 1 0 0 0 0 0 0 0 0 0 0 0 0 0 0 0 0 0 0 0 0 0 0 0 0 0 0 0 0 0 0 0 0 0 0 0 0 0
0 0 2 1 5 5 0 1 0 0 1 0 1 0 0 0 0 0 0 0 0 0 0 0 0 0 0 0 0 0 0 0 0 0 0 0 0 0 0 0 0 0 0 0 0 0 0
3 1 0 0 6 0 0 0 0 0 1 0 0 0 0 0 0 0 0 0 0 0 0 0 0 0 0 0 0 0 0 0 0 0 0 0 0 0 0 0 0 0 0 0 0 0 0
0 0 2 1 1 0 0 0 0 0 0 0 0 0 0 0 0 0 0 0 0 3 0 0 0 0 0 0 0 0 0 0 0 0 0 0 0 0 0 0 0 0 0 0 0 0 0
0 0 1 0 2 0 0 0 0 0 1 0 0 0 0 0 0 0 0 0 0 1 0 0 0 0 0 0 1 0 0 0 0 0 0 17 0 0 0 0 0 0 0 0 0 0 0
0 0 0 0 7 0 0 0 0 0 0 0 0 0 0 0 0 0 0 0 0 2 0 0 0 0 0 0 10 25 3 0 0 0 56 15 16 0 0 0 0 0 0 0 0 0 0
0 9 0 0 0 0 1 1 0 0 0 0 0 0 0 0 0 0 0 0 0 1 0 0 0 0 0 7 36 14 48 14 0 0 0 0 5 6 0 0 0 0 0 0 0 0 0
0 2 3 2 0 0 0 0 0 0 0 0 0 0 0 0 0 3 0 0 1 0 0 0 0 0 0 11 30 2 0 6 4 0 0 0 0 10 6 9 0 0 9 1 1 1 0
0 0 0 0 0 0 0 0 0 0 0 0 0 0 1 1 6 8 0 0 0 0 0 0 0 0 0 13 10 0 4 0 15 3 4 0 0 0 0 10 1 0 0 0 0 0 0
0 1 4 2 4 0 0 0 0 0 0 0 0 2 3 7 5 4 2 0 0 0 0 0 0 0 2 17 7 0 9 0 0 10 28 25 3 0 0 0 0 0 13 0 0 0 1
3 1 1 1 0 0 0 0 0 0 0 0 0 0 0 12 6 0 0 0 0 0 0 0 0 0 0 4 0 0 3 5 0 0 50 37 6 8 33 1 0 0 0 11 7 2 0
1 1 2 1 0 0 0 0 0 0 0 0 0 0 4 5 6 0 0 0 0 0 0 0 3 2 6 6 5 4 12 24 6 6 0 0 37 0 9 1 50 22 1 0 10 6 0
1 1 1 1 2 0 0 0 0 0 0 0 0 0 3 6 2 6 0 0 0 0 0 0 1 7 14 7 10 18 11 20 22 20 11 0 2 35 34 22 3 6 0 37 63 0 17
2 3 2 1 0 0 0 0 0 0 0 0 0 3 5 8 0 0 0 0 0 0 0 0 1 3 13 10 8 15 14 10 24 23 10 9 14 0 2 3 5 27 1 19 97 107 32
3 4 3 1 1 1 0 0 0 0 0 0 0 0 0 2 3 0 0 0 0 0 0 0 0 0 5 1 1 13 5 12 0 9 7 6 2 6 2 0 0 0 14 11 0 25 23
5 2 4 3 1 1 0 0 0 0 0 0 3 0 0 0 0 3 0 0 0 0 0 0 0 0 2 0 0 0 1 1 0 2 5 9 10 14 0 3 14 6 4 1 10 4 12
4 3 1 6 0 1 0 0 0 0 0 0 0 2 0 0 0 0 0 0 0 0 0 0 0 0 0 0 0 0 0 0 0 0 0 9 4 30 0 0 1 8 6 15 1 17 34
7 4 3 3 4 2 0 0 0 0 0 1 0 0 0 0 0 0 0 0 0 0 0 0 0 0 0 0 0 0 0 0 0 0 0 2 6 7 1 15 10 0 0 1 6 4 3
5 7 5 4 3 3 4 0 0 0 0 3 0 0 1 0 0 0 0 0 0 0 0 0 0 0 0 0 0 0 0 0 0 0 2 6 9 12 2 8 1 0 0 0 1 1 7
4 4 7 6 6 4 6 3 0 0 0 7 4 2 3 0 0 0 0 0 0 0 0 2 0 0 1 0 0 0 0 0 0 2 9 6 18 7 8 10 0 0 0 1 22 20 10
5 5 5 9 6 3 5 3 0 0 0 6 7 4 2 3 0 0 0 0 0 0 0 2 1 5 1 3 5 2 2 0 0 7 35 30 9 8 5 6 5 6 7 26 3 25 55
5 6 6 8 6 5 4 4 4 1 0 6 9 7 16 8 0 0 1 0 1 0 0 2 4 3 2 6 7 2 0 0 0 0 0 16 22 7 8 15 12 9 90 41 24 34 30
3 3 5 4 7 6 5 4 5 7 4 2 9 23 5 2 0 0 2 3 3 4 5 0 1 6 9 5 12 17 19 16 0 12 8 3 5 29 23 17 10 22 4 0 3 0 0
3 2 2 3 3 7 6 5 5 8 7 2 4 12 31 16 0 0 1 3 3 5 3 6 4 4 7 5 8 12 13 12 2 0 0 2 15 27 38 31 7 0 0 0 0 11 4
CIN
-0 -0 -2 -0 -0 -0 -0 -0 -0 -0 -0 -0 -0 -0 -0 -0 -0 -0 -0 -0 -0 -0 -0 -0 -0 -0 -0 -0 -0 -0 -0 -0 -0 -0 -0 -0 -0 -0 -0 -0 -0 -0 -0 -0 -0 -0 -0
-0 -0 -0 -0 -0 -0 -0 -0 -0 -0 -0 -0 -0 -0 -0 -0 -0 -0 -0 -0 -0 -0 -0 -0 -0 -0 -0 -0 -0 -0 -0 -0 -0 -0 -0 -0 -0 -0 -0 -0 -0 -0 -0 -0 -0 -0 -0
-3 -2 -0 -0 -0 -0 -0 -0 -0 -0 -0 -0 -0 -0 -0 -0 -0 -0 -0 -0 -0 -0 -0 -0 -0 -0 -0 -0 -0 -0 -0 -0 -0 -0 -0 -0 -0 -0 -0 -0 -0 -0 -0 -0 -0 -0 -0
-0 -1 -0 -0 -0 -0 -0 -0 -0 -0 -0 -0 -0 -0 -0 -0 -0 -0 -0 -0 -0 -0 -0 -0 -0 -0 -0 -0 -0 -0 -0 -0 -0 -0 -0 -0 -0 -0 -0 -0 -0 -0 -0 -0 -0 -0 -0
-0 -0 -0 -0 -0 -0 -0 -0 -0 -0 -0 -0 -0 -0 -0 -0 -0 -0 -0 -0 -0 -0 -0 -0 -0 -0 -0 -0 -0 -0 -0 -0 -0 -0 -0 -0 -0 -0 -0 -0 -0 -0 -0 -0 -0 -0 -0
-0 -1 -0 -0 -0 -0 -0 -0 -0 -0 -0 -0 -0 -0 -0 -0 -0 -0 -0 -0 -0 -0 -0 -0 -0 -0 -0 -0 -0 -0 -0 -0 -0 -0 -0 -0 -0 -0 -0 -0 -0 -0 -0 -0 -0 -0 -0
-0 -0 -0 -0 -0 -0 -0 -0 -0 -0 -0 -0 -0 -0 -0 -0 -0 -0 -0 -0 -0 -0 -0 -0 -0 -0 -0 -0 -0 -0 -0 -0 -0 -0 -0 -0 -0 -0 -0 -0 -0 -0 -0 -0 -0 -0 -0
-5 -1 -0 -0 -0 -0 -0 -0 -0 -0 -0 -0 -0 -0 -0 -0 -0 -0 -0 -0 -0 -0 -0 -0 -0 -0 -0 -0 -0 -0 -0 -0 -0 -0 -0 -0 -0 -0 -0 -0 -0 -0 -0 -0 -0 -0 -0
-0 -0 -1 -0 -0 -0 -0 -0 -0 -0 -0 -0 -0 -0 -0 -0 -0 -0 -0 -0 -0 -1 -0 -0 -0 -0 -0 -0 -0 -0 -0 -0 -0 -0 -0 -0 -0 -0 -0 -0 -0 -0 -0 -0 -0 -0 -0
-0 -0 -0 -0 -0 -0 -0 -0 -0 -0 -0 -0 -0 -0 -0 -0 -0 -0 -0 -0 -0 -0 -0 -0 -0 -0 -0 -0 -3 -0 -0 -0 -0 -0 -0 -3 -0 -0 -0 -0 -0 -0 -0 -0 -0 -0 -0
-0 -0 -0 -0 -0 -0 -0 -0 -0 -0 -0 -0 -0 -0 -0 -0 -0 -0 -0 -0 -0 -1 -0 -0 -0 -0 -0 -0 -4 -3 -6 -0 -0 -0 -5 -7 -5 -0 -0 -0 -0 -0 -0 -0 -0 -0 -0
-0 -2 -0 -0 -0 -0 -0 -0 -0 -0 -0 -0 -0 -0 -0 -0 -0 -0 -0 -0 -0 -0 -0 -0 -0 -0 -0 -5 -16 -8 -5 -2 -0 -0 -0 -0 -35 -4 -0 -0 -0 -0 -2 -0 -0 -0 -1
-0 -1 -1 -4 -0 -0 -0 -0 -0 -0 -0 -0 -0 -0 -0 -0 -0 -0 -0 -0 -0 -0 -0 -0 -0 -0 -0 -4 -4 -8 -2 -15 -3 -0 -0 -0 -0 -19 -3 -4 -0 -0 -6 -7 -1 -1 -0
-0 -0 -0 -0 -0 -0 -0 -0 -0 -0 -0 -0 -0 -0 -0 -0 -0 -0 -1 -0 -0 -0 -0 -0 -0 -0 -0 -4 -4 -0 -9 -0 -36 -3 -5 -0 -0 -0 -0 -3 -4 -0 -1 -0 -0 -0 -0
-0 -1 -2 -2 -3 -0 -2 -0 -0 -0 -0 -0 -0 -1 -0 -0 -0 -0 -2 -0 -0 -0 -0 -0 -0 -0 -2 -5 -5 -0 -3 -0 -2 -12 -9 -9 -7 -0 -0 -0 -1 -0 -2 -0 -0 -0 -4
-0 -2 -1 -2 -0 -0 -0 -0 -0 -0 -0 -0 -0 -0 -0 -0 -0 -0 -0 -0 -0 -0 -0 -0 -0 -0 -0 -5 -0 -0 -3 -35 -2 -7 -6 -10 -4 -17 -7 -5 -0 -0 -0 -6 -3 -6 -0
-0 -0 -0 -1 -0 -0 -0 -0 -0 -0 -0 -0 -0 -0 -0 -1 -1 -1 -0 -0 -0 -0 -0 -1 -1 -2 -2 -1 -1 -2 -2 -7 -27 -1 -0 -0 -6 -0 -2 -2 -6 -6 -5 -1 -13 -19 -0
-0 -0 -1 -1 -0 -0 -0 -0 -0 -0 -0 -0 -0 -0 -0 -0 -0 -0 -0 -0 -0 -0 -0 -0 -0 -2 -1 -3 -2 -2 -2 -4 -5 -5 -1 -0 -0 -2 -6 -9 -8 -25 -69 -22 -0 -0 -13
-2 -1 -1 -1 -0 -0 -0 -0 -0 -0 -0 -0 -0 -0 -0 -0 -0 -0 -0 -0 -0 -0 -0 -0 -1 -2 -2 -1 -1 -2 -4 -5 -3 -2 -3 -2 -1 -0 -5 -4 -8 -6 -2 -8 -4 -6 -6
-0 -2 -1 -0 -0 -0 -0 -0 -0 -0 -0 -0 -0 -0 -0 -1 -0 -0 -0 -0 -0 -0 -0 -0 -0 -0 -2 -2 -1 -1 -2 -3 -0 -3 -6 -4 -1 -1 -3 -0 -0 -0 -15 -11 -0 -5 -6
-2 -1 -1 -0 -1 -0 -0 -0 -0 -0 -0 -0 -0 -0 -0 -0 -0 -0 -0 -0 -0 -0 -0 -0 -0 -0 -2 -0 -0 -0 -2 -1 -0 -1 -1 -5 -1 -1 -2 -3 -5 -8 -4 -7 -7 -5 -6
-2 -2 -2 -2 -1 -1 -0 -0 -0 -0 -0 -0 -0 -0 -0 -0 -0 -0 -0 -0 -0 -0 -0 -0 -0 -0 -0 -0 -0 -0 -0 -0 -0 -0 -0 -3 -1 -2 -0 -0 -2 -5 -5 -3 -0 -6 -5
-2 -2 -1 -3 -1 -1 -0 -0 -0 -0 -0 -0 -0 -0 -0 -0 -0 -0 -0 -0 -0 -0 -0 -0 -0 -0 -0 -0 -0 -0 -0 -0 -0 -0 -0 -2 -2 -2 -0 -4 -6 -0 -0 -34 -5 -6 -7
-2 -1 -2 -1 -1 -1 -1 -0 -0 -0 -0 -1 -0 -0 -0 -0 -0 -0 -0 -0 -0 -0 -0 -0 -0 -0 -0 -0 -0 -0 -0 -0 -0 -0 -2 -1 -1 -2 -1 -3 -0 -0 -0 -0 -2 -4 -10
-2 -3 -1 -1 -2 -1 -2 -4 -0 -0 -0 -1 -1 -1 -0 -0 -0 -0 -0 -0 -0 -0 -0 -1 -1 -0 -1 -0 -0 -1 -0 -0 -0 -6 -4 -5 -2 -1 -1 -1 -0 -0 -0 -5 -6 -8 -16
-1 -2 -1 -0 -3 -4 -3 -4 -3 -0 -0 -0 -1 -0 -0 -0 -0 -0 -0 -0 -0 -0 -0 -1 -1 -1 -2 -1 -1 -0 -1 -0 -0 -2 -6 -6 -5 -3 -2 -1 -1 -7 -8 -14 -81 -22 -32
-1 -2 -3 -2 -2 -5 -5 -3 -2 -4 -0 -1 -1 -7 -0 -0 -0 -0 -1 -0 -1 -0 -0 -1 -1 -1 -1 -1 -0 -1 -0 -1 -0 -0 -4 -7 -4 -1 -3 -0 -3 -5 -23 -37 -4 -9 -38
-2 -1 -1 -2 -2 -4 -5 -5 -4 -5 -1 -1 -0 -0 -0 -0 -0 -0 -1 -1 -1 -1 -1 -0 -2 -0 -1 -0 -0 -1 -1 -2 -0 -1 -2 -3 -7 -2 -3 -2 -1 -23 -20 -0 -2 -0 -0
-2 -2 -2 -2 -3 -3 -3 -5 -7 -4 -4 -6 -1 -1 -0 -0 -0 -0 -1 -2 -1 -1 -1 -1 -0 -1 -1 -2 -1 -1 -1 -1 -3 -0 -0 -4 -2 -0 -1 -3 -10 -0 -0 -0 -0 -4 -2
Wind_Speed
14 15 15 15 16 17 17 18 19 20 21 23 24 25 27 29 31 32 33 34 35 35 35 35 35 36 32 30 33 22 27 28 32 29 29 31 36 38 43 38 39 41 42 41 39 38 34
16 14 14 15 15 16 17 19 20 21 22 24 25 26 28 29 31 33 34 35 36 36 36 35 34 33 31 37 25 28 31 34 33 32 33 29 32 36 47 45 43 40 43 45 44 40 39
16 16 17 17 17 17 18 19 20 22 23 24 26 27 29 30 32 34 36 37 37 37 35 32 30 29 33 36 35 38 36 35 34 34 35 32 31 33 32 42 43 41 48 41 44 43 41
16 16 16 17 17 17 19 21 22 23 24 26 27 28 29 31 33 36 37 38 38 32 28 25 23 26 33 28 32 34 35 37 36 36 38 35 34 36 38 37 40 43 45 51 47 41 42
17 17 17 17 18 19 21 22 23 24 26 27 28 29 30 33 35 37 38 38 32 24 23 20 22 25 33 25 29 33 35 38 36 37 35 35 33 39 34 40 47 46 50 51 51 42 40
16 17 17 18 19 20 21 23 24 25 27 28 29 30 32 33 35 37 37 36 23 20 26 19 20 29 23 38 41 38 35 34 38 38 39 39 37 42 43 42 57 52 51 55 55 39 41
17 17 18 19 19 20 22 23 25 26 27 28 29 31 31 33 35 36 36 29 27 21 30 26 28 30 35 39 40 39 36 37 36 39 47 41 48 52 48 45 48 50 54 55 48 47 42
17 17 17 19 19 21 22 23 25 26 27 29 30 30 32 33 32 30 31 29 28 24 27 23 22 22 28 34 39 38 31 37 39 47 44 49 57 53 48 48 50 54 55 59 51 42 44
16 16 17 18 18 20 21 23 25 26 27 28 29 31 31 33 28 26 29 30 26 26 23 21 22 23 29 34 37 38 34 38 43 47 47 54 55 48 55 53 52 55 55 56 55 42 43
16 17 17 18 17 18 20 22 25 27 27 27 28 30 31 33 22 30 26 28 26 23 24 25 26 24 26 35 29 41 30 34 41 47 48 49 49 55 52 60 52 58 47 49 51 52 55
14 15 15 16 17 18 17 17 19 22 22 24 25 26 29 27 24 27 26 26 24 21 28 25 25 21 23 25 31 30 26 25 39 40 39 50 47 51 61 54 52 59 45 45 49 53 53
13 16 16 17 16 16 16 17 19 20 19 18 19 21 21 20 20 25 23 21 20 25 27 25 22 27 25 26 33 31 35 23 32 38 41 45 41 45 48 53 51 46 48 47 47 50 61
13 15 15 17 18 18 18 18 19 21 19 17 15 13 16 18 24 23 21 20 25 27 25 23 24 23 21 23 27 29 33 30 25 30 40 41 44 39 34 43 44 48 46 54 58 57 66
14 14 15 16 18 19 19 19 20 21 20 19 14 13 20 20 19 19 19 23 28 24 25 22 21 18 15 17 22 24 29 31 27 28 34 41 51 45 39 42 44 46 52 58 60 60 61
13 14 16 16 14 17 21 19 21 21 21 21 9 18 19 20 17 16 20 26 25 24 26 24 21 17 17 16 20 17 27 24 26 27 31 36 41 35 39 44 42 48 50 53 60 59 59
12 14 15 15 16 17 18 20 21 23 23 21 20 17 24 21 18 16 23 25 22 21 21 20 20 17 17 17 16 15 16 13 24 26 25 29 39 32 29 29 38 47 43 49 53 66 71
12 13 14 15 16 16 15 18 22 24 24 19 17 18 22 21 16 18 24 22 21 20 19 20 16 15 13 14 12 10 12 19 22 22 25 28 30 37 35 38 38 35 47 51 50 49 64
13 12 13 14 15 16 16 17 21 23 21 17 18 20 19 19 21 22 22 21 22 19 17 13 13 13 12 13 12 9 6 3 25 27 25 18 24 33 41 37 33 43 37 40 56 60 53
15 15 14 15 15 15 16 16 19 20 20 18 19 18 18 17 20 21 19 17 16 17 18 18 15 12 14 12 13 8 7 10 28 29 25 24 20 31 31 31 36 39 44 35 38 48 59
16 16 15 15 14 15 15 15 17 18 16 17 17 20 18 18 18 19 22 21 21 17 16 13 13 12 11 14 9 8 7 14 32 32 29 28 26 29 36 33 28 37 40 43 44 45 49
18 17 16 14 15 14 14 14 16 16 15 15 18 18 19 19 17 15 19 19 21 21 16 16 18 14 14 16 14 10 7 9 26 22 26 16 23 28 38 40 38 36 40 41 46 50 47
19 18 18 17 15 14 14 14 15 14 13 14 16 18 17 19 16 15 17 20 19 19 18 18 15 15 14 13 11 14 12 10 8 24 20 24 20 32 38 37 40 42 40 41 44 45 50
20 18 18 17 16 14 14 13 13 13 10 16 15 16 18 19 16 16 15 16 19 19 18 16 17 17 14 14 14 13 11 10 11 12 14 12 12 21 45 39 39 41 40 40 43 43 44
22 20 19 18 17 16 14 13 13 13 10 14 13 16 18 21 16 15 16 15 16 17 16 17 15 14 13 15 16 13 11 11 12 15 12 12 12 18 20 36 45 34 40 35 40 41 39
21 20 19 17 16 15 15 13 13 13 14 13 15 15 17 22 20 18 15 15 17 17 16 17 17 18 20 20 18 22 20 12 6 5 7 9 11 14 15 18 33 36 42 42 43 45 40
23 21 20 18 16 15 15 14 13 12 13 14 13 14 15 23 21 17 19 19 20 22 22 20 19 16 18 20 17 19 21 19 16 13 8 6 7 9 12 13 15 37 36 36 30 38 28
23 21 20 19 17 15 15 14 14 13 13 13 16 14 16 22 22 18 18 20 20 20 21 20 20 20 17 18 17 18 17 13 15 14 10 7 7 8 11 13 18 26 29 35 36 35 37
24 22 21 19 18 16 15 14 14 13 12 13 17 12 13 22 24 21 17 17 18 17 17 18 26 17 14 18 18 18 18 19 17 12 14 10 11 10 12 16 19 26 28 27 32 40 40
25 23 21 20 20 17 16 14 14 13 12 13 19 14 13 21 23 31 25 19 15 13 14 14 13 16 17 18 19 21 18 19 19 17 11 12 11 18 21 21 37 35 26 32 41 41 35
Wind_Direction
337 355 342 332 329 328 331 331 332 333 332 331 330 328 326 324 322 321 320 319 317 316 314 312 309 308 309 294 288 303 299 295 290 287 283 275 267 262 259 263 262 259 260 260 262 262 265
349 334 326 323 322 322 323 327 331 331 330 328 327 326 324 323 324 324 321 319 317 315 314 313 313 310 303 288 303 301 297 291 285 282 278 278 271 268 259 260 260 263 263 260 260 260 260
354 350 347 337 331 325 324 336 335 332 330 330 330 329 329 330 329 326 323 320 319 319 318 318 320 315 300 287 299 295 293 287 282 278 274 274 274 269 270 262 262 261 259 263 258 258 259
355 346 340 334 324 322 335 346 342 337 336 334 332 330 330 331 330 327 322 318 321 329 334 334 332 321 300 312 307 298 294 286 280 275 270 271 273 270 265 268 264 257 258 256 255 258 258
3 357 339 327 328 332 353 356 354 348 343 341 339 337 334 332 329 326 321 323 338 354 353 350 338 324 307 321 308 305 299 285 281 274 268 266 267 262 264 259 257 254 254 254 257 258 257
358 353 333 336 335 346 349 354 355 349 345 345 346 344 340 337 335 330 322 320 360 1 355 360 349 324 315 307 302 299 300 287 277 273 264 257 258 256 253 251 247 250 252 255 256 257 255
337 358 352 0 337 358 352 356 347 349 349 349 352 348 346 339 337 343 345 3 3 5 354 348 339 330 318 314 307 298 292 287 277 266 257 252 249 248 249 250 255 258 255 255 258 257 260
355 358 5 357 10 1 4 358 353 353 356 351 351 354 351 346 345 4 7 11 7 1 355 359 356 351 338 327 309 306 293 279 268 260 257 252 248 248 252 253 254 254 255 252 258 261 257
6 9 18 3 16 9 9 0 352 348 352 354 352 347 352 346 1 12 9 10 13 7 0 4 5 359 348 334 319 309 298 276 267 261 254 251 251 250 249 250 251 252 253 253 253 259 260
16 12 358 7 26 24 16 12 5 357 359 4 1 358 358 332 16 3 10 9 14 15 6 10 5 7 357 341 327 320 308 277 267 261 256 256 255 250 248 248 249 250 253 256 256 254 252
33 32 42 31 28 21 35 39 34 27 27 19 15 13 5 10 13 12 8 10 15 27 0 10 10 13 4 351 338 330 326 294 267 263 263 253 251 250 247 248 247 250 255 255 255 255 256
16 358 15 13 24 34 35 32 30 28 33 38 33 26 24 27 24 15 19 22 28 13 6 9 16 10 9 9 353 338 308 314 279 264 262 259 262 254 254 252 252 253 252 254 255 255 251
355 351 3 7 7 10 16 21 22 20 32 39 40 39 38 37 17 21 25 29 14 12 12 14 10 11 10 18 11 1 332 304 293 266 258 259 253 258 255 254 250 247 247 247 247 248 250
349 350 353 355 359 2 6 12 14 16 23 30 40 50 42 39 37 31 34 19 9 13 10 10 11 4 11 24 19 10 358 320 300 278 269 257 252 253 255 252 250 245 244 244 247 249 254
338 341 342 350 10 2 355 6 5 13 15 22 50 42 39 34 37 44 26 9 13 12 10 11 11 21 27 25 16 17 358 353 313 307 278 269 261 264 254 252 250 248 247 248 253 257 258
328 331 332 342 349 356 360 0 0 356 6 17 25 36 23 32 46 48 19 10 15 18 14 18 19 27 15 10 10 14 19 27 350 323 302 279 272 265 269 260 253 250 253 248 248 250 252
317 325 330 334 342 352 1 358 352 352 358 20 29 24 23 34 45 36 17 16 14 19 19 19 19 5 7 8 15 12 28 8 329 351 327 300 280 265 266 259 255 251 250 252 258 253 251
307 317 323 330 334 342 350 355 349 351 6 20 19 12 25 30 24 26 20 20 16 18 17 15 20 17 18 17 11 8 356 7 326 314 328 342 300 276 264 266 267 260 263 261 251 252 258
297 304 312 317 326 334 338 348 351 356 4 15 13 14 25 27 18 17 21 18 17 13 19 22 19 15 18 9 11 22 12 8 332 308 311 314 318 293 283 267 264 264 261 265 265 262 256
291 295 303 311 319 327 334 343 349 356 8 16 18 5 11 17 18 14 12 15 16 25 12 17 15 11 15 10 7 4 328 349 316 308 311 300 300 290 272 272 287 273 270 268 264 264 262
285 291 296 304 311 321 327 336 342 353 4 10 10 6 4 3 9 13 13 13 9 10 20 15 16 18 13 8 360 344 353 316 300 326 314 324 303 294 280 275 279 281 274 272 267 266 264
281 285 290 297 304 313 318 326 337 347 357 0 3 4 6 355 3 6 10 8 8 10 13 9 3 1 360 355 346 325 326 316 323 321 321 316 316 299 285 285 281 278 279 274 272 272 270
277 281 286 292 299 307 314 320 329 339 354 349 357 1 359 355 0 360 0 6 6 6 8 9 7 359 348 346 348 334 306 283 263 263 306 279 272 304 267 288 287 278 276 278 275 275 275
274 279 283 287 292 298 306 312 319 329 333 342 350 352 350 348 351 350 354 356 353 353 347 347 347 345 349 347 342 333 312 279 257 245 252 262 278 298 295 296 281 287 278 283 280 279 281
273 276 280 284 288 294 298 305 308 317 322 329 338 343 344 339 344 340 340 345 348 349 347 346 349 353 358 353 352 1 6 7 342 267 239 249 277 294 277 283 290 251 278 280 283 280 285
270 273 276 279 283 287 292 297 300 305 313 319 325 333 339 333 345 341 339 344 346 347 349 354 5 359 358 355 3 1 4 359 11 15 24 350 275 273 298 281 275 292 290 291 309 284 295
268 270 274 276 279 282 286 291 295 296 299 306 316 318 329 324 333 333 334 340 347 347 347 347 355 357 9 1 357 354 352 352 358 356 341 336 332 260 269 283 310 315 314 297 279 288 301
265 269 272 276 278 278 283 285 290 291 295 293 308 311 314 320 321 319 319 326 331 335 337 349 348 3 2 357 357 357 357 0 353 350 349 327 319 313 319 309 306 321 315 314 299 297 299
264 266 270 273 277 280 279 280 286 286 289 296 297 305 309 310 317 315 321 322 315 312 315 334 341 353 360 353 354 352 346 342 335 324 318 310 328 326 315 311 284 290 317 304 295 302 303